When you browse on this site, cookies collect data to enhance your experience and personalize the content and advertising you see.
Visit our Privacy Policy to learn more. By continuing to use the site, you agree to this use of cookies and data.
  • en Suisse
  • Liste des pays
  • À 7 jours
  • Température de l'eau
  • Carte satellitaire
  • Carte météo
  • Widgets météo
  • user-avatar
    Se connecter

    Météo par heure à Kalety

    Ce jour, 18 Février, Lundi

    Heure Température Précipitation Vent Pression Humidité
    00:00 +5°C° 0 mm 1 m/s 754 mmHg 75%
    01:00 +5°C° 0 mm 1 m/s 754 mmHg 76%
    02:00 +4°C° 0 mm 2 m/s 754 mmHg 77%
    03:00 +3°C° 0 mm 2 m/s 754 mmHg 78%
    04:00 +3°C° 0 mm 2 m/s 753 mmHg 80%
    05:00 +3°C° 0 mm 2 m/s 753 mmHg 80%
    06:00 +3°C° 0 mm 2 m/s 753 mmHg 80%
    07:00 +2°C° 0 mm 2 m/s 753 mmHg 81%
    08:00 +3°C° 0 mm 2 m/s 753 mmHg 75%
    09:00 +5°C° 0 mm 2 m/s 753 mmHg 70%
    10:00 +6°C° 0 mm 2 m/s 753 mmHg 64%
    11:00 +7°C° 0 mm 2 m/s 753 mmHg 59%
    12:00 +8°C° 0 mm 2 m/s 753 mmHg 53%
    13:00 +10°C° 0 mm 2 m/s 752 mmHg 47%
    14:00 +11°C° 0 mm 1 m/s 752 mmHg 49%
    15:00 +11°C° 0 mm 1 m/s 752 mmHg 50%
    16:00 +10°C° 0 mm 1 m/s 751 mmHg 52%
    17:00 +8°C° 0 mm 2 m/s 751 mmHg 55%
    18:00 +7°C° 0 mm 2 m/s 751 mmHg 59%
    19:00 +6°C° 0 mm 2 m/s 751 mmHg 62%
    20:00 +6°C° 0 mm 2 m/s 751 mmHg 65%
    21:00 +6°C° 0 mm 2 m/s 751 mmHg 69%
    22:00 +5°C° 0 mm 2 m/s 750 mmHg 72%
    23:00 +4°C° 0 mm 3 m/s 750 mmHg 75%

    Demain, 19 Février, Mardi

    Heure Température Précipitation Vent Pression Humidité
    00:00 +3°C° 0 mm 3 m/s 750 mmHg 77%
    01:00 +3°C° 0 mm 3 m/s 750 mmHg 79%
    02:00 +2°C° 0 mm 3 m/s 750 mmHg 79%
    03:00 +2°C° 0 mm 3 m/s 749 mmHg 79%
    04:00 +1°C° 0 mm 3 m/s 749 mmHg 80%
    05:00 +1°C° 0 mm 3 m/s 749 mmHg 81%
    06:00 +1°C° 0 mm 3 m/s 749 mmHg 82%
    07:00 0°C° 0 mm 4 m/s 748 mmHg 83%
    08:00 +1°C° 0 mm 4 m/s 748 mmHg 77%
    09:00 +4°C° 0 mm 4 m/s 748 mmHg 71%
    10:00 +5°C° 0 mm 4 m/s 748 mmHg 65%
    11:00 +6°C° 0 mm 5 m/s 748 mmHg 61%
    12:00 +8°C° 0 mm 5 m/s 747 mmHg 57%
    13:00 +9°C° 0 mm 5 m/s 747 mmHg 53%
    14:00 +10°C° 0 mm 4 m/s 747 mmHg 54%
    15:00 +10°C° 0 mm 4 m/s 747 mmHg 54%
    16:00 +10°C° 0 mm 4 m/s 747 mmHg 55%
    17:00 +8°C° 0 mm 4 m/s 747 mmHg 60%
    18:00 +7°C° 0 mm 4 m/s 747 mmHg 66%
    19:00 +6°C° 0 mm 4 m/s 747 mmHg 71%
    20:00 +6°C° 0.3 mm 4 m/s 748 mmHg 77%
    21:00 +6°C° 0.3 mm 4 m/s 748 mmHg 82%
    22:00 +5°C° 0.3 mm 4 m/s 748 mmHg 88%
    23:00 +5°C° 0.1 mm 4 m/s 748 mmHg 89%

    Après-demain, 20 Février, Mercredi

    Heure Température Précipitation Vent Pression Humidité
    00:00 +4°C° 0.1 mm 4 m/s 749 mmHg 90%
    01:00 +3°C° 0.1 mm 4 m/s 749 mmHg 91%
    02:00 +3°C° 0 mm 4 m/s 749 mmHg 90%
    03:00 +2°C° 0 mm 5 m/s 749 mmHg 90%
    04:00 +2°C° 0 mm 5 m/s 749 mmHg 90%
    05:00 +2°C° 0 mm 5 m/s 750 mmHg 90%
    06:00 +2°C° 0 mm 5 m/s 750 mmHg 90%
    07:00 +2°C° 0 mm 5 m/s 750 mmHg 90%
    08:00 +2°C° 0 mm 5 m/s 751 mmHg 86%
    09:00 +3°C° 0 mm 5 m/s 751 mmHg 83%
    10:00 +4°C° 0 mm 6 m/s 751 mmHg 80%
    11:00 +4°C° 0 mm 6 m/s 751 mmHg 76%
    12:00 +4°C° 0 mm 6 m/s 751 mmHg 73%
    13:00 +4°C° 0 mm 6 m/s 751 mmHg 70%
    14:00 +5°C° 0 mm 6 m/s 751 mmHg 69%
    15:00 +6°C° 0 mm 5 m/s 751 mmHg 68%
    16:00 +6°C° 0 mm 5 m/s 751 mmHg 68%
    17:00 +5°C° 0 mm 4 m/s 752 mmHg 71%
    18:00 +5°C° 0 mm 4 m/s 752 mmHg 75%
    19:00 +4°C° 0 mm 3 m/s 752 mmHg 79%
    20:00 +4°C° 0 mm 3 m/s 752 mmHg 81%
    21:00 +4°C° 0 mm 3 m/s 753 mmHg 82%
    22:00 +4°C° 0 mm 3 m/s 753 mmHg 84%
    23:00 +3°C° 0 mm 3 m/s 753 mmHg 85%

    21 Février, Jeudi

    Heure Température Précipitation Vent Pression Humidité
    00:00 +3°C° 0 mm 4 m/s 753 mmHg 87%
    01:00 +3°C° 0 mm 4 m/s 753 mmHg 88%
    02:00 +3°C° 0 mm 4 m/s 753 mmHg 88%
    03:00 +3°C° 0 mm 4 m/s 753 mmHg 87%
    04:00 +3°C° 0 mm 4 m/s 753 mmHg 87%
    05:00 +3°C° 0.2 mm 4 m/s 753 mmHg 87%
    06:00 +3°C° 0.2 mm 4 m/s 753 mmHg 88%
    07:00 +3°C° 0.2 mm 4 m/s 753 mmHg 88%
    08:00 +2°C° 0.2 mm 5 m/s 753 mmHg 87%
    09:00 +3°C° 0.2 mm 5 m/s 753 mmHg 86%
    10:00 +3°C° 0.2 mm 5 m/s 753 mmHg 85%
    11:00 +5°C° 0.1 mm 5 m/s 753 mmHg 84%
    12:00 +5°C° 0.1 mm 5 m/s 753 mmHg 83%
    13:00 +6°C° 0.1 mm 4 m/s 753 mmHg 82%
    14:00 +6°C° 0.4 mm 4 m/s 753 mmHg 85%
    15:00 +5°C° 0.4 mm 4 m/s 753 mmHg 88%
    16:00 +5°C° 0.4 mm 4 m/s 753 mmHg 92%
    17:00 +5°C° 0.2 mm 3 m/s 753 mmHg 93%
    18:00 +5°C° 0.2 mm 3 m/s 754 mmHg 94%
    19:00 +5°C° 0.2 mm 3 m/s 754 mmHg 95%
    20:00 +5°C° 0 mm 3 m/s 754 mmHg 96%
    21:00 +6°C° 0 mm 2 m/s 755 mmHg 96%
    22:00 +6°C° 0 mm 2 m/s 755 mmHg 97%
    23:00 +6°C° 0 mm 2 m/s 755 mmHg 97%

    22 Février, Vendredi

    Heure Température Précipitation Vent Pression Humidité
    00:00 +6°C° 0 mm 2 m/s 756 mmHg 97%
    01:00 +6°C° 0 mm 2 m/s 756 mmHg 97%
    02:00 +6°C° 0.1 mm 2 m/s 757 mmHg 97%
    03:00 +5°C° 0.1 mm 2 m/s 757 mmHg 97%
    04:00 +5°C° 0.1 mm 2 m/s 758 mmHg 97%
    05:00 +5°C° 0.1 mm 2 m/s 758 mmHg 97%
    06:00 +4°C° 0.1 mm 3 m/s 759 mmHg 97%
    07:00 +4°C° 0.1 mm 3 m/s 760 mmHg 96%
    08:00 +4°C° 0 mm 3 m/s 760 mmHg 94%
    09:00 +4°C° 0 mm 3 m/s 761 mmHg 92%
    10:00 +4°C° 0 mm 3 m/s 761 mmHg 90%
    11:00 +4°C° 0 mm 3 m/s 762 mmHg 86%
    12:00 +5°C° 0 mm 3 m/s 762 mmHg 82%
    13:00 +6°C° 0 mm 2 m/s 763 mmHg 78%
    14:00 +6°C° 0 mm 2 m/s 763 mmHg 74%
    15:00 +5°C° 0 mm 3 m/s 763 mmHg 69%
    16:00 +5°C° 0 mm 3 m/s 763 mmHg 64%
    17:00 +4°C° 0 mm 3 m/s 764 mmHg 62%
    18:00 +4°C° 0 mm 2 m/s 764 mmHg 60%
    19:00 +3°C° 0 mm 2 m/s 765 mmHg 58%
    20:00 +3°C° 0 mm 2 m/s 765 mmHg 57%
    21:00 +2°C° 0 mm 2 m/s 766 mmHg 55%
    22:00 +2°C° 0 mm 2 m/s 766 mmHg 54%
    23:00 +2°C° 0 mm 1 m/s 766 mmHg 55%

    23 Février, Samedi

    Heure Température Précipitation Vent Pression Humidité
    00:00 +2°C° 0 mm 1 m/s 767 mmHg 56%
    01:00 +2°C° 0 mm 1 m/s 767 mmHg 57%
    02:00 +2°C° 0 mm 1 m/s 767 mmHg 57%
    03:00 +2°C° 0 mm 1 m/s 767 mmHg 57%
    04:00 +1°C° 0 mm 1 m/s 766 mmHg 56%
    05:00 +2°C° 0 mm 1 m/s 767 mmHg 55%
    06:00 +2°C° 0 mm 1 m/s 767 mmHg 54%
    07:00 +2°C° 0 mm 1 m/s 767 mmHg 52%
    08:00 +3°C° 0 mm 1 m/s 767 mmHg 49%
    09:00 +4°C° 0 mm 1 m/s 767 mmHg 46%
    10:00 +4°C° 0 mm 2 m/s 767 mmHg 42%
    11:00 +5°C° 0 mm 2 m/s 766 mmHg 45%
    12:00 +6°C° 0 mm 2 m/s 766 mmHg 48%
    13:00 +7°C° 0 mm 2 m/s 766 mmHg 50%
    14:00 +7°C° 0 mm 3 m/s 765 mmHg 55%
    15:00 +8°C° 0 mm 3 m/s 765 mmHg 60%
    16:00 +8°C° 0 mm 3 m/s 765 mmHg 65%
    17:00 +7°C° 0 mm 3 m/s 765 mmHg 71%
    18:00 +5°C° 0 mm 3 m/s 765 mmHg 77%
    19:00 +4°C° 0 mm 3 m/s 764 mmHg 83%
    20:00 +4°C° 0 mm 3 m/s 764 mmHg 84%
    21:00 +3°C° 0 mm 3 m/s 764 mmHg 86%
    22:00 +3°C° 0 mm 3 m/s 764 mmHg 87%
    23:00 +3°C° 0 mm 3 m/s 764 mmHg 88%
    Voir plus